S59ACA-6 Weather Reports


Display with metric or nautical units.
time (UTC)temp
F
wind
direction
speed
MPH
gust
MPH
rain 1hr
in
rain 24hr
in
rain mn
in
humidity
%
barometer
mb
20190425181631 58 292 0.0 0.0 0.00 0.00 0.00 63 916.1
20190425181330 58 315 0.0 0.0 0.00 0.00 0.00 63 916.2
20190425181029 58 315 0.0 0.0 0.00 0.00 0.00 63 916.0
20190425180729 58 315 0.0 0.0 0.00 0.00 0.00 63 916.2
20190425180429 58 315 0.0 0.0 0.00 0.00 0.00 62 916.1
20190425180130 58 315 0.0 0.0 0.00 0.00 0.00 62 916.1
20190425175833 59 315 0.0 0.0 0.00 0.00 0.00 62 915.9
20190425175530 59 338 0.0 0.0 0.00 0.00 0.00 62 915.9
20190425175229 59 180 0.0 0.0 0.00 0.00 0.00 61 915.8
20190425174927 59 180 0.0 0.0 0.00 0.00 0.00 61 915.8
20190425174629 59 180 0.0 0.0 0.00 0.00 0.00 61 915.7
20190425174329 59 180 0.0 0.0 0.00 0.00 0.00 60 915.9
20190425174030 60 180 0.0 0.0 0.00 0.00 0.00 60 915.9
20190425173729 60 180 0.0 0.0 0.00 0.00 0.00 60 915.9
20190425173430 60 292 0.0 0.0 0.00 0.00 0.00 60 916.1
20190425173131 60 292 0.0 0.0 0.00 0.00 0.00 60 916.0
20190425172829 60 292 0.0 0.0 0.00 0.00 0.00 59 916.0
20190425172529 60 292 0.0 0.0 0.00 0.00 0.00 59 916.0
20190425172232 61 315 0.0 0.0 0.00 0.00 0.00 59 916.0
20190425171930 61 202 0.0 0.0 0.00 0.00 0.00 58 915.9
20190425171630 61 202 0.0 0.0 0.00 0.00 0.00 58 915.9
20190425171329 61 202 0.0 0.0 0.00 0.00 0.00 57 916.1
20190425171030 62 202 0.0 0.0 0.00 0.00 0.00 57 916.2
20190425170729 62 225 0.0 0.0 0.00 0.00 0.00 57 916.0
20190425170429 62 338 0.0 0.0 0.00 0.00 0.00 56 916.0
20190425170129 62 202 0.0 0.0 0.00 0.00 0.00 56 916.0
20190425165832 63 202 0.0 0.0 0.00 0.00 0.00 55 916.0
20190425165530 63 248 0.0 0.0 0.00 0.00 0.00 55 915.9
20190425165234 64 248 0.0 0.0 0.00 0.00 0.00 55 915.9
20190425164928 64 202 0.0 0.0 0.00 0.00 0.00 55 916.0
20190425164629 64 270 0.0 0.0 0.00 0.00 0.00 55 916.0
20190425164330 64 270 0.0 0.0 0.00 0.00 0.00 55 916.0
20190425164029 64 202 0.0 0.0 0.00 0.00 0.00 55 916.0
20190425163729 65 248 0.0 0.0 0.00 0.00 0.00 54 915.9
20190425163431 65 202 0.0 0.0 0.00 0.00 0.00 54 915.8
20190425163129 65 270 0.0 0.0 0.00 0.00 0.00 54 915.9
20190425162830 65 202 0.0 0.0 0.00 0.00 0.00 54 916.0
20190425162531 65 248 0.0 0.0 0.00 0.00 0.00 54 915.9
20190425162230 65 180 0.0 0.0 0.00 0.00 0.00 54 916.0
20190425161930 65 292 0.0 0.0 0.00 0.00 0.00 53 915.9
20190425161630 65 202 2.0 0.0 0.00 0.00 0.00 53 915.9
20190425161327 65 202 0.0 0.0 0.00 0.00 0.00 53 915.9
20190425161027 66 270 0.0 0.0 0.00 0.00 0.00 52 916.0
20190425160730 66 292 9.0 0.0 0.00 0.00 0.00 52 916.1
20190425160431 66 158 0.0 0.0 0.00 0.00 0.00 52 916.1
20190425160129 66 180 0.0 0.0 0.00 0.00 0.00 52 916.2
20190425155829 67 202 0.0 0.0 0.00 0.00 0.00 52 916.1
20190425155534 67 202 0.0 0.0 0.00 0.00 0.00 51 916.1
20190425155232 67 202 0.0 0.0 0.00 0.00 0.00 52 916.1
20190425154929 67 225 0.0 0.0 0.00 0.00 0.00 52 916.0
20190425154629 67 202 0.0 0.0 0.00 0.00 0.00 52 916.0
20190425154330 67 270 0.0 0.0 0.00 0.00 0.00 51 916.0
20190425154030 67 270 0.0 0.0 0.00 0.00 0.00 51 916.0
20190425153731 67 270 0.0 0.0 0.00 0.00 0.00 51 916.1
20190425153429 68 292 13.0 0.0 0.00 0.00 0.00 51 916.0
20190425153127 68 292 0.0 0.0 0.00 0.00 0.00 51 915.9
20190425152830 68 180 0.0 0.0 0.00 0.00 0.00 51 915.9
20190425152530 68 292 6.0 0.0 0.00 0.00 0.00 51 915.9
20190425152229 68 292 0.0 0.0 0.00 0.00 0.00 52 916.1
20190425151929 68 202 0.0 0.0 0.00 0.00 0.00 52 915.9
20190425151630 68 292 0.0 0.0 0.00 0.00 0.00 52 915.9
20190425151327 67 270 0.0 0.0 0.00 0.00 0.00 52 916.0
20190425151029 68 270 0.0 0.0 0.00 0.00 0.00 52 916.0
20190425150730 68 225 2.0 0.0 0.00 0.00 0.00 52 916.0
20190425150432 68 202 0.0 0.0 0.00 0.00 0.00 52 916.1
20190425150130 68 202 4.0 0.0 0.00 0.00 0.00 52 916.1
20190425145830 68 202 6.0 0.0 0.00 0.00 0.00 52 916.1
20190425145529 68 292 4.0 0.0 0.00 0.00 0.00 52 916.1
20190425145227 68 292 2.0 0.0 0.00 0.00 0.00 52 916.1
20190425144932 68 270 0.0 0.0 0.00 0.00 0.00 52 916.1
20190425144631 68 292 0.0 0.0 0.00 0.00 0.00 52 916.2
20190425144333 68 292 0.0 0.0 0.00 0.00 0.00 52 916.2
20190425143727 68 292 0.0 0.0 0.00 0.00 0.00 52 916.4
20190425143427 68 292 0.0 0.0 0.00 0.00 0.00 52 916.2
20190425143130 68 270 0.0 0.0 0.00 0.00 0.00 52 916.3
20190425142830 68 180 0.0 0.0 0.00 0.00 0.00 52 916.3
20190425142529 68 202 0.0 0.0 0.00 0.00 0.00 52 916.4
20190425142231 68 202 0.0 0.0 0.00 0.00 0.00 52 916.3
20190425141930 69 315 0.0 0.0 0.00 0.00 0.00 52 916.3
20190425141634 69 270 0.0 0.0 0.00 0.00 0.00 52 916.4
20190425141329 69 270 0.0 0.0 0.00 0.00 0.00 52 916.4
20190425141030 69 292 5.0 0.0 0.00 0.00 0.00 52 916.4
20190425140731 69 202 0.0 0.0 0.00 0.00 0.00 52 916.5
20190425140430 69 315 0.0 0.0 0.00 0.00 0.00 52 916.6
20190425140130 69 292 0.0 0.0 0.00 0.00 0.00 52 916.6
20190425135829 69 292 0.0 0.0 0.00 0.00 0.00 51 916.6
20190425135527 69 270 0.0 0.0 0.00 0.00 0.00 52 916.6
20190425135229 69 292 0.0 0.0 0.00 0.00 0.00 52 916.6
20190425134930 69 248 0.0 0.0 0.00 0.00 0.00 52 916.5
20190425134630 69 292 0.0 0.0 0.00 0.00 0.00 51 916.4
20190425134330 69 315 2.0 0.0 0.00 0.00 0.00 52 916.5
20190425134028 69 292 0.0 0.0 0.00 0.00 0.00 51 916.6
20190425133732 69 202 0.0 0.0 0.00 0.00 0.00 52 916.6
20190425133428 69 270 0.0 0.0 0.00 0.00 0.00 51 916.5
20190425133130 69 248 0.0 0.0 0.00 0.00 0.00 51 916.5
20190425132831 69 202 0.0 0.0 0.00 0.00 0.00 52 916.5
20190425132530 69 202 2.0 0.0 0.00 0.00 0.00 51 916.5
20190425132230 70 202 0.0 0.0 0.00 0.00 0.00 51 916.7
20190425131932 70 270 0.0 0.0 0.00 0.00 0.00 51 916.7
20190425131628 70 270 0.0 0.0 0.00 0.00 0.00 51 916.6
20190425131332 70 202 4.0 0.0 0.00 0.00 0.00 51 916.6
20190425131029 70 202 0.0 0.0 0.00 0.00 0.00 52 916.5
20190425130727 70 202 0.0 0.0 0.00 0.00 0.00 52 916.6
20190425130431 70 202 0.0 0.0 0.00 0.00 0.00 52 916.7
20190425130133 70 180 0.0 0.0 0.00 0.00 0.00 51 916.6
20190425125830 70 270 11.0 0.0 0.00 0.00 0.00 52 916.7
20190425125531 69 248 0.0 0.0 0.00 0.00 0.00 52 916.7
20190425125229 69 202 7.0 0.0 0.00 0.00 0.00 52 916.6
20190425124929 70 225 0.0 0.0 0.00 0.00 0.00 51 916.6
20190425124629 70 180 0.0 0.0 0.00 0.00 0.00 51 916.7
20190425124330 70 270 0.0 0.0 0.00 0.00 0.00 52 916.6
20190425124030 70 202 0.0 0.0 0.00 0.00 0.00 52 916.5
20190425123730 70 270 0.0 0.0 0.00 0.00 0.00 53 916.5
20190425123428 70 270 0.0 0.0 0.00 0.00 0.00 53 916.5
20190425123128 70 202 8.0 0.0 0.00 0.00 0.00 53 916.5
20190425122829 69 202 0.0 0.0 0.00 0.00 0.00 53 916.7
20190425122531 69 202 0.0 0.0 0.00 0.00 0.00 53 916.6
20190425122230 69 202 4.0 0.0 0.00 0.00 0.00 53 916.8
20190425121929 68 202 1.0 0.0 0.00 0.00 0.00 53 916.7
20190425121631 68 270 0.0 0.0 0.00 0.00 0.00 53 916.8
20190425121329 68 202 0.0 0.0 0.00 0.00 0.00 53 916.8
20190425121032 68 270 13.0 0.0 0.00 0.00 0.00 53 916.8
20190425120730 68 270 0.0 0.0 0.00 0.00 0.00 53 916.7
20190425120429 68 248 0.0 0.0 0.00 0.00 0.00 52 916.9
20190425120129 68 202 0.0 0.0 0.00 0.00 0.00 52 916.8
20190425115830 68 292 21.0 0.0 0.00 0.00 0.00 52 916.9
20190425115530 68 270 0.0 0.0 0.00 0.00 0.00 52 916.8
20190425115228 69 292 13.0 0.0 0.00 0.00 0.00 51 916.8
20190425114929 69 292 15.0 0.0 0.00 0.00 0.00 50 916.9
20190425114630 70 270 17.0 0.0 0.00 0.00 0.00 52 916.8
20190425114329 70 292 10.0 0.0 0.00 0.00 0.00 52 916.8
20190425114030 70 270 3.0 0.0 0.00 0.00 0.00 53 916.7
20190425113730 70 270 0.0 0.0 0.00 0.00 0.00 53 916.8
20190425113427 70 338 0.0 0.0 0.00 0.00 0.00 52 916.8
20190425113127 70 225 0.0 0.0 0.00 0.00 0.00 53 916.8
20190425112830 70 292 0.0 0.0 0.00 0.00 0.00 53 916.8
20190425112529 70 225 0.0 0.0 0.00 0.00 0.00 54 916.8
20190425112231 70 225 0.0 0.0 0.00 0.00 0.00 54 916.8
20190425111930 70 158 0.0 0.0 0.00 0.00 0.00 54 916.8
20190425111628 69 180 0.0 0.0 0.00 0.00 0.00 54 916.9
20190425111329 69 270 0.0 0.0 0.00 0.00 0.00 54 916.8
20190425111028 69 202 3.0 0.0 0.00 0.00 0.00 54 916.7
20190425110729 69 225 8.0 0.0 0.00 0.00 0.00 53 916.8
20190425110430 69 202 0.0 0.0 0.00 0.00 0.00 55 916.8
20190425110130 69 180 0.0 0.0 0.00 0.00 0.00 55 916.8
20190425105830 68 202 3.0 0.0 0.00 0.00 0.00 55 916.8
20190425105530 68 180 1.0 0.0 0.00 0.00 0.00 55 916.7
20190425105228 68 225 0.0 0.0 0.00 0.00 0.00 55 916.7
20190425104927 68 180 0.0 0.0 0.00 0.00 0.00 55 916.7
20190425104630 67 270 0.0 0.0 0.00 0.00 0.00 56 916.6
20190425104329 67 202 0.0 0.0 0.00 0.00 0.00 57 916.7
20190425104031 67 180 0.0 0.0 0.00 0.00 0.00 57 916.7
20190425103729 67 180 0.0 0.0 0.00 0.00 0.00 57 916.6
20190425103431 66 180 5.0 0.0 0.00 0.00 0.00 58 916.8
20190425103130 66 202 3.0 0.0 0.00 0.00 0.00 57 916.6
20190425102830 66 292 0.0 0.0 0.00 0.00 0.00 56 916.6
20190425102530 66 202 0.0 0.0 0.00 0.00 0.00 57 916.7
20190425102229 66 248 0.0 0.0 0.00 0.00 0.00 57 916.8
20190425101929 66 248 0.0 0.0 0.00 0.00 0.00 57 916.8
20190425101629 66 270 7.0 0.0 0.00 0.00 0.00 56 916.9
20190425101329 67 292 21.0 0.0 0.00 0.00 0.00 56 916.8
20190425101030 67 202 5.0 0.0 0.00 0.00 0.00 58 917.0
20190425100729 67 202 0.0 0.0 0.00 0.00 0.00 58 916.8
20190425100431 67 202 0.0 0.0 0.00 0.00 0.00 57 916.9
20190425100131 67 225 2.0 0.0 0.00 0.00 0.00 57 916.9
20190425095831 67 202 0.0 0.0 0.00 0.00 0.00 58 916.8
20190425095529 67 225 0.0 0.0 0.00 0.00 0.00 58 916.8
20190425095230 67 202 3.0 0.0 0.00 0.00 0.00 59 917.0
20190425094928 67 270 0.0 0.0 0.00 0.00 0.00 59 916.7
20190425094629 67 202 0.0 0.0 0.00 0.00 0.00 59 916.9
20190425094331 66 202 0.0 0.0 0.00 0.00 0.00 59 916.9
20190425094031 66 225 0.0 0.0 0.00 0.00 0.00 58 916.7
20190425093729 66 225 0.0 0.0 0.00 0.00 0.00 60 917.0
20190425093431 66 225 0.0 0.0 0.00 0.00 0.00 60 916.9
20190425093131 66 270 0.0 0.0 0.00 0.00 0.00 60 916.7
20190425092828 66 292 7.0 0.0 0.00 0.00 0.00 60 916.8
20190425092528 66 292 1.0 0.0 0.00 0.00 0.00 61 916.7
20190425092344 66 158 2.0 0.0 0.00 0.00 0.00 62 916.9
20190425091931 65 158 0.0 0.0 0.00 0.00 0.00 62 916.7
20190425091331 65 202 1.0 0.0 0.00 0.00 0.00 62 916.8
20190425091030 65 202 3.0 0.0 0.00 0.00 0.00 63 916.8
20190425090731 65 270 2.0 0.0 0.00 0.00 0.00 63 916.7
20190425090429 64 202 0.0 0.0 0.00 0.00 0.00 63 916.6
20190425090129 64 202 0.0 0.0 0.00 0.00 0.00 63 916.7
20190425085829 64 338 0.0 0.0 0.00 0.00 0.00 64 916.7
20190425085529 64 202 0.0 0.0 0.00 0.00 0.00 64 916.6
20190425085230 64 270 0.0 0.0 0.00 0.00 0.00 64 916.8
20190425084930 63 180 2.0 0.0 0.00 0.00 0.00 65 916.7
20190425084629 63 202 0.0 0.0 0.00 0.00 0.00 65 916.7
20190425084330 63 202 0.0 0.0 0.00 0.00 0.00 66 916.8
20190425084030 62 225 0.0 0.0 0.00 0.00 0.00 66 916.8
20190425083731 62 202 0.0 0.0 0.00 0.00 0.00 67 916.7
20190425083431 62 202 0.0 0.0 0.00 0.00 0.00 67 916.6
20190425083130 62 270 0.0 0.0 0.00 0.00 0.00 67 916.6
20190425082829 61 202 6.0 0.0 0.00 0.00 0.00 67 916.5
20190425082532 61 292 0.0 0.0 0.00 0.00 0.00 67 916.3
20190425082231 61 202 1.0 0.0 0.00 0.00 0.00 68 916.3
20190425081928 61 180 3.0 0.0 0.00 0.00 0.00 68 916.2
20190425081628 60 270 0.0 0.0 0.00 0.00 0.00 68 916.4
20190425081328 60 270 0.0 0.0 0.00 0.00 0.00 69 916.4
20190425081030 60 180 0.0 0.0 0.00 0.00 0.00 70 916.5
20190425080730 60 202 0.0 0.0 0.00 0.00 0.00 70 916.3
20190425080429 60 180 4.0 0.0 0.00 0.00 0.00 70 916.3
20190425080129 59 180 5.0 0.0 0.00 0.00 0.00 71 916.1
20190425075830 59 202 3.0 0.0 0.00 0.00 0.00 71 916.2
20190425075531 59 202 13.0 0.0 0.00 0.00 0.00 72 916.3
20190425075230 58 180 0.0 0.0 0.00 0.00 0.00 72 916.1
20190425074931 58 202 0.0 0.0 0.00 0.00 0.00 72 916.1
20190425074632 58 202 0.0 0.0 0.00 0.00 0.00 72 916.2
20190425074330 57 202 6.0 0.0 0.00 0.00 0.00 72 916.0
20190425074032 57 180 0.0 0.0 0.00 0.00 0.00 72 916.3
20190425073732 57 180 0.0 0.0 0.00 0.00 0.00 72 916.2
20190425073426 57 202 0.0 0.0 0.00 0.00 0.00 73 916.4
20190425073131 57 292 0.0 0.0 0.00 0.00 0.00 73 916.3
20190425072830 57 202 9.0 0.0 0.00 0.00 0.00 73 916.3
20190425072531 57 270 0.0 0.0 0.00 0.00 0.00 73 916.5
20190425072230 57 270 0.0 0.0 0.00 0.00 0.00 73 916.5
20190425071934 57 292 6.0 0.0 0.00 0.00 0.00 73 916.4
20190425071627 57 270 0.0 0.0 0.00 0.00 0.00 73 916.4
20190425071331 57 158 0.0 0.0 0.00 0.00 0.00 73 916.5
20190425071031 56 202 8.0 0.0 0.00 0.00 0.00 74 916.1
20190425070733 56 202 0.0 0.0 0.00 0.00 0.00 74 916.1
20190425070429 56 225 0.0 0.0 0.00 0.00 0.00 74 915.9
20190425070130 56 158 1.0 0.0 0.00 0.00 0.00 75 915.8
20190425065827 56 180 0.0 0.0 0.00 0.00 0.00 75 915.9
20190425065530 55 180 0.0 0.0 0.00 0.00 0.00 75 915.6
20190425065230 55 225 0.0 0.0 0.00 0.00 0.00 75 915.7
20190425064931 55 202 3.0 0.0 0.00 0.00 0.00 75 915.6
20190425064629 55 202 0.0 0.0 0.00 0.00 0.00 75 915.5
20190425064330 55 315 0.0 0.0 0.00 0.00 0.00 75 915.5
20190425064029 55 225 13.0 0.0 0.00 0.00 0.00 76 915.4
20190425063728 54 202 0.0 0.0 0.00 0.00 0.00 76 915.3
20190425063432 54 225 11.0 0.0 0.00 0.00 0.00 76 915.5
20190425063130 54 180 3.0 0.0 0.00 0.00 0.00 77 915.4
20190425062830 54 158 9.0 0.0 0.00 0.00 0.00 76 915.6
20190425062529 54 180 5.0 0.0 0.00 0.00 0.00 76 915.5
20190425062229 54 202 3.0 0.0 0.00 0.00 0.00 77 915.6
20190425061929 54 202 6.0 0.0 0.00 0.00 0.00 77 915.5
20190425061629 53 292 0.0 0.0 0.00 0.00 0.00 77 915.5
20190425061331 53 202 0.0 0.0 0.00 0.00 0.00 77 915.6
20190425061029 53 202 0.0 0.0 0.00 0.00 0.00 78 915.6
20190425060729 53 202 0.0 0.0 0.00 0.00 0.00 78 915.7
20190425060427 53 180 0.0 0.0 0.00 0.00 0.00 78 915.5
20190425060128 53 202 3.0 0.0 0.00 0.00 0.00 78 915.5
20190425055828 52 202 0.0 0.0 0.00 0.00 0.00 78 915.5
20190425055529 52 338 0.0 0.0 0.00 0.00 0.00 79 915.6
20190425055230 52 202 0.0 0.0 0.00 0.00 0.00 79 915.3
20190425054929 52 202 0.0 0.0 0.00 0.00 0.00 79 915.3
20190425054630 52 45 0.0 0.0 0.00 0.00 0.00 79 915.2
20190425054330 52 248 0.0 0.0 0.00 0.00 0.00 79 915.2
20190425054028 52 202 4.0 0.0 0.00 0.00 0.00 79 915.3
20190425053728 51 202 0.0 0.0 0.00 0.00 0.00 79 915.4
20190425053430 51 180 0.0 0.0 0.00 0.00 0.00 80 915.1
20190425053130 51 158 0.0 0.0 0.00 0.00 0.00 80 915.2
20190425052830 51 202 1.0 0.0 0.00 0.00 0.00 80 915.3
20190425052530 51 202 7.0 0.0 0.00 0.00 0.00 80 915.3
20190425052232 51 202 0.0 0.0 0.00 0.00 0.00 80 915.3
20190425051929 51 202 0.0 0.0 0.00 0.00 0.00 81 915.0
20190425051627 51 202 0.0 0.0 0.00 0.00 0.00 81 915.0
20190425051330 50 225 0.0 0.0 0.00 0.00 0.00 81 915.0
20190425051031 50 202 0.0 0.0 0.00 0.00 0.00 81 915.1
20190425050732 50 202 0.0 0.0 0.00 0.00 0.00 81 915.0
20190425050430 50 202 5.0 0.0 0.00 0.00 0.00 81 915.0
20190425050130 50 225 0.0 0.0 0.00 0.00 0.00 82 915.0
20190425045832 50 270 0.0 0.0 0.00 0.00 0.00 81 915.1
20190425045530 49 292 0.0 0.0 0.00 0.00 0.00 81 915.0
20190425045230 49 158 2.0 0.0 0.00 0.00 0.00 81 914.9
20190425044930 49 202 0.0 0.0 0.00 0.00 0.00 81 915.0
20190425044630 49 225 0.0 0.0 0.00 0.00 0.00 81 914.9
20190425044327 49 248 0.0 0.0 0.00 0.00 0.00 81 914.9
20190425044029 49 292 0.0 0.0 0.00 0.00 0.00 81 914.9
20190425043727 49 158 0.0 0.0 0.00 0.00 0.00 81 915.0
20190425043429 49 248 0.0 0.0 0.00 0.00 0.00 81 915.1
20190425043134 49 248 0.0 0.0 0.00 0.00 0.00 81 915.0
20190425042832 49 202 0.0 0.0 0.00 0.00 0.00 81 915.1
20190425042531 49 202 0.0 0.0 0.00 0.00 0.00 81 915.0
20190425042226 49 270 0.0 0.0 0.00 0.00 0.00 81 915.0
20190425041931 49 270 0.0 0.0 0.00 0.00 0.00 81 915.1
20190425041630 49 270 0.0 0.0 0.00 0.00 0.00 80 915.1
20190425041330 49 225 0.0 0.0 0.00 0.00 0.00 80 915.1
20190425041033 49 202 0.0 0.0 0.00 0.00 0.00 80 915.0
20190425040730 49 202 0.0 0.0 0.00 0.00 0.00 80 915.1
20190425040434 49 202 0.0 0.0 0.00 0.00 0.00 80 915.0
20190425040130 49 225 0.0 0.0 0.00 0.00 0.00 80 915.0
20190425035830 49 225 0.0 0.0 0.00 0.00 0.00 80 914.9
20190425035529 49 225 0.0 0.0 0.00 0.00 0.00 80 914.8
20190425035232 50 248 0.0 0.0 0.00 0.00 0.00 80 914.9
20190425034931 50 202 0.0 0.0 0.00 0.00 0.00 80 914.8
20190425034627 50 270 0.0 0.0 0.00 0.00 0.00 80 914.7
20190425034330 50 270 0.0 0.0 0.00 0.00 0.00 80 914.7
20190425034031 50 202 0.0 0.0 0.00 0.00 0.00 80 914.7
20190425033730 50 202 0.0 0.0 0.00 0.00 0.00 80 914.7
20190425033429 50 338 5.0 0.0 0.00 0.00 0.00 80 914.6
20190425033128 50 202 0.0 0.0 0.00 0.00 0.00 80 914.7
20190425032831 50 202 0.0 0.0 0.00 0.00 0.00 80 914.7
20190425032527 50 202 0.0 0.0 0.00 0.00 0.00 80 914.6
20190425032230 50 180 0.0 0.0 0.00 0.00 0.00 80 914.7
20190425031929 50 180 0.0 0.0 0.00 0.00 0.00 80 914.9
20190425031630 50 158 3.0 0.0 0.00 0.00 0.00 80 914.8
20190425031330 50 202 0.0 0.0 0.00 0.00 0.00 80 914.8
20190425031028 50 180 0.0 0.0 0.00 0.00 0.00 80 914.8
20190425030729 50 158 6.0 0.0 0.00 0.00 0.00 80 914.7
20190425030427 50 180 0.0 0.0 0.00 0.00 0.00 80 914.6
20190425030129 50 225 0.0 0.0 0.00 0.00 0.00 80 914.6
20190425025829 50 202 0.0 0.0 0.00 0.00 0.00 80 914.7
20190425025529 50 202 6.0 0.0 0.00 0.00 0.00 80 914.7
20190425025231 50 202 0.0 0.0 0.00 0.00 0.00 80 914.7
20190425024931 50 248 0.0 0.0 0.00 0.00 0.00 80 914.8
20190425024629 50 202 0.0 0.0 0.00 0.00 0.00 80 914.8
20190425024329 50 202 0.0 0.0 0.00 0.00 0.00 80 914.8
20190425024031 50 202 0.0 0.0 0.00 0.00 0.00 80 914.9
20190425023731 50 202 0.0 0.0 0.00 0.00 0.00 80 914.9
20190425023427 50 180 0.0 0.0 0.00 0.00 0.00 80 914.9
20190425023128 50 158 0.0 0.0 0.00 0.00 0.00 80 914.9
20190425022829 50 180 5.0 0.0 0.00 0.00 0.00 80 914.7
20190425022529 50 292 0.0 0.0 0.00 0.00 0.00 80 914.8
20190425022229 50 202 0.0 0.0 0.00 0.00 0.00 80 915.0
20190425021930 50 270 0.0 0.0 0.00 0.00 0.00 80 915.0
20190425021630 50 202 0.0 0.0 0.00 0.00 0.00 80 914.9
20190425021330 50 202 0.0 0.0 0.00 0.00 0.00 80 914.9
20190425021030 50 225 0.0 0.0 0.00 0.00 0.00 80 914.8
20190425020730 50 202 4.0 0.0 0.00 0.00 0.00 80 914.9
20190425020429 50 202 0.0 0.0 0.00 0.00 0.00 80 914.9
20190425020129 50 202 0.0 0.0 0.00 0.00 0.00 80 914.9
20190425015828 50 202 0.0 0.0 0.00 0.00 0.00 80 915.0
20190425015526 50 202 0.0 0.0 0.00 0.00 0.00 80 914.9
20190425015229 50 202 0.0 0.0 0.00 0.00 0.00 80 914.9
20190425014931 50 202 5.0 0.0 0.00 0.00 0.00 80 914.8
20190425014629 51 225 6.0 0.0 0.00 0.00 0.00 80 914.9
20190425014327 51 202 0.0 0.0 0.00 0.00 0.00 80 915.1
20190425014029 51 202 0.0 0.0 0.00 0.00 0.00 80 915.2
20190425013731 51 202 0.0 0.0 0.00 0.00 0.00 80 915.1
20190425013431 51 202 0.0 0.0 0.00 0.00 0.00 80 915.0
20190425013129 51 180 2.0 0.0 0.00 0.00 0.00 80 914.9
20190425012832 51 202 0.0 0.0 0.00 0.00 0.00 80 914.9
20190425012530 51 202 0.0 0.0 0.00 0.00 0.00 80 914.9
20190425012230 51 202 3.0 0.0 0.00 0.00 0.00 80 914.9
20190425011930 51 248 0.0 0.0 0.00 0.00 0.00 80 915.0
20190425011627 51 225 0.0 0.0 0.00 0.00 0.00 80 914.9
20190425011327 51 225 0.0 0.0 0.00 0.00 0.00 80 914.9
20190425011031 51 270 0.0 0.0 0.00 0.00 0.00 80 914.9
20190425010730 51 202 0.0 0.0 0.00 0.00 0.00 80 914.9
20190425010429 51 202 0.0 0.0 0.00 0.00 0.00 80 914.7
20190425010130 51 202 0.0 0.0 0.00 0.00 0.00 80 915.0
20190425005831 51 202 0.0 0.0 0.00 0.00 0.00 80 914.8
20190425005526 51 202 0.0 0.0 0.00 0.00 0.00 80 914.8
20190425005229 51 202 0.0 0.0 0.00 0.00 0.00 80 914.8
20190425004930 51 202 0.0 0.0 0.00 0.00 0.00 80 914.7
20190425004630 51 202 0.0 0.0 0.00 0.00 0.00 80 914.7
20190425004330 51 202 0.0 0.0 0.00 0.00 0.00 80 914.7
20190425004031 51 202 1.0 0.0 0.00 0.00 0.00 80 914.6
20190425003727 51 180 6.0 0.0 0.00 0.00 0.00 81 914.5
20190425003427 51 202 0.0 0.0 0.00 0.00 0.00 81 914.5
20190425003129 51 202 1.0 0.0 0.00 0.00 0.00 81 914.3
20190425002829 51 202 8.0 0.0 0.00 0.00 0.00 81 914.6
20190425002529 51 202 0.0 0.0 0.00 0.00 0.00 81 914.5
20190425002230 51 202 0.0 0.0 0.00 0.00 0.00 81 914.5
20190425001929 51 202 0.0 0.0 0.00 0.00 0.00 81 914.5
20190425001629 51 202 7.0 0.0 0.00 0.00 0.00 81 914.3
20190425001331 51 225 9.0 0.0 0.00 0.00 0.00 81 914.4
20190425001029 51 202 0.0 0.0 0.00 0.00 0.00 81 914.3
20190425000732 51 180 6.0 0.0 0.00 0.02 0.00 81 914.3
20190425000430 51 202 5.0 0.0 0.00 0.02 0.00 81 914.4
20190425000130 51 202 3.0 0.0 0.00 0.02 0.00 81 914.4
20190424235830 51 202 7.0 0.0 0.00 0.02 0.00 81 914.3
20190424235532 51 202 0.0 0.0 0.00 0.02 0.00 81 914.3
20190424235229 51 202 0.0 0.0 0.00 0.02 0.00 81 914.3
20190424234928 51 202 4.0 0.0 0.00 0.02 0.00 81 914.3
20190424234630 51 202 8.0 0.0 0.00 0.02 0.00 80 914.3
20190424234332 51 202 0.0 0.0 0.00 0.02 0.00 80 914.3
20190424234033 51 202 2.0 0.0 0.00 0.02 0.00 80 914.3
20190424233729 51 202 12.0 0.0 0.00 0.02 0.00 80 914.5
20190424233430 51 202 0.0 0.0 0.00 0.02 0.00 81 914.5
20190424233129 51 202 0.0 0.0 0.00 0.02 0.00 81 914.5
20190424232831 51 202 0.0 0.0 0.00 0.02 0.00 81 914.5
20190424232529 51 202 8.0 0.0 0.00 0.02 0.00 81 914.4
20190424232231 51 202 5.0 0.0 0.00 0.02 0.00 81 914.4
20190424231930 51 202 9.0 0.0 0.00 0.02 0.00 81 914.4
20190424231630 51 202 17.0 0.0 0.00 0.02 0.00 81 914.4
20190424231331 51 180 4.0 0.0 0.00 0.02 0.00 81 914.5
20190424231102 51 202 4.0 0.0 0.00 0.02 0.00 81 914.5
20190424230729 51 202 2.0 0.0 0.00 0.02 0.00 81 914.4
20190424230430 51 202 2.0 0.0 0.00 0.02 0.00 81 914.6
20190424230132 51 202 8.0 0.0 0.00 0.02 0.00 81 914.4
20190424225829 51 180 9.0 0.0 0.00 0.02 0.00 81 914.3
20190424225529 51 180 8.0 0.0 0.00 0.02 0.00 81 914.3
20190424225228 51 270 0.0 0.0 0.00 0.02 0.00 81 914.4
20190424224933 51 135 4.0 0.0 0.00 0.02 0.00 81 914.3
20190424224631 51 225 8.0 0.0 0.00 0.02 0.00 81 914.2
20190424224330 51 180 7.0 0.0 0.00 0.02 0.00 81 914.0
20190424224031 51 180 2.0 0.0 0.00 0.02 0.00 81 914.3
20190424223731 51 158 0.0 0.0 0.00 0.02 0.00 81 914.3
20190424223432 51 158 7.0 0.0 0.00 0.02 0.00 81 914.2
20190424223132 51 202 9.0 0.0 0.00 0.02 0.00 81 914.4
20190424222830 51 202 7.0 0.0 0.00 0.02 0.00 81 914.2
20190424222531 51 202 8.0 0.0 0.00 0.02 0.00 81 914.0
20190424222228 51 202 10.0 0.0 0.00 0.02 0.00 81 914.1
20190424221927 51 158 8.0 0.0 0.00 0.02 0.00 81 914.2
20190424221630 51 158 1.0 0.0 0.00 0.02 0.00 81 914.2
20190424221330 51 225 8.0 0.0 0.00 0.02 0.00 81 914.1
20190424221102 51 180 3.0 0.0 0.00 0.02 0.00 81 914.0
20190424220733 51 202 5.0 0.0 0.00 0.06 0.00 81 913.9
20190424220428 51 180 6.0 0.0 0.00 0.06 0.00 81 914.0
20190424220131 51 202 9.0 0.0 0.00 0.06 0.00 81 913.9
20190424215829 51 202 3.0 0.0 0.00 0.06 0.00 81 914.1
20190424215527 51 180 3.0 0.0 0.00 0.06 0.00 81 914.1
20190424215231 51 180 0.0 0.0 0.00 0.06 0.00 81 914.0
20190424214930 51 180 3.0 0.0 0.00 0.06 0.00 81 914.1
20190424214629 51 202 6.0 0.0 0.00 0.06 0.00 81 914.3
20190424214330 51 202 0.0 0.0 0.00 0.06 0.00 81 914.1
20190424214027 51 202 5.0 0.0 0.00 0.06 0.00 81 914.0
20190424213728 51 202 0.0 0.0 0.00 0.06 0.00 80 913.9
20190424213429 51 202 0.0 0.0 0.00 0.06 0.00 80 914.1
20190424213131 51 202 0.0 0.0 0.00 0.06 0.00 80 914.0
20190424212830 51 202 0.0 0.0 0.00 0.06 0.00 80 913.8
20190424212529 51 202 0.0 0.0 0.00 0.06 0.00 80 913.8
20190424212227 51 202 2.0 0.0 0.00 0.06 0.00 80 913.7
20190424211928 51 202 1.0 0.0 0.00 0.06 0.00 80 913.9
20190424211630 51 202 0.0 0.0 0.00 0.06 0.00 80 913.9
20190424211331 51 180 0.0 0.0 0.00 0.06 0.00 80 913.8
20190424211103 51 225 0.0 0.0 0.00 0.06 0.00 79 914.0
20190424210730 51 202 0.0 0.0 0.00 0.06 0.00 79 913.9
20190424210430 51 180 0.0 0.0 0.00 0.06 0.00 79 913.8
20190424210128 51 202 0.0 0.0 0.00 0.06 0.00 79 913.9
20190424205827 51 202 0.0 0.0 0.00 0.06 0.00 79 913.8
20190424205529 51 180 0.0 0.0 0.00 0.06 0.00 79 913.8
20190424205229 51 202 0.0 0.0 0.00 0.06 0.00 79 913.8
20190424204932 51 202 0.0 0.0 0.00 0.06 0.00 79 913.8
20190424204631 51 180 4.0 0.0 0.00 0.06 0.00 79 913.8
20190424204332 51 180 0.0 0.0 0.00 0.06 0.00 79 913.8
20190424204027 51 202 7.0 0.0 0.00 0.06 0.00 79 913.6
20190424203728 51 202 0.0 0.0 0.00 0.06 0.00 79 913.9
20190424203431 51 202 9.0 0.0 0.00 0.06 0.00 79 913.8
20190424203130 51 202 2.0 0.0 0.00 0.06 0.00 78 913.7
20190424202835 51 202 0.0 0.0 0.00 0.06 0.00 78 913.8
20190424202530 51 202 0.0 0.0 0.00 0.06 0.00 78 913.8
20190424202231 51 202 0.0 0.0 0.00 0.06 0.00 78 913.7
20190424201929 51 180 0.0 0.0 0.00 0.06 0.00 78 913.4
20190424201628 51 202 0.0 0.0 0.00 0.06 0.00 78 913.6
20190424201331 51 180 0.0 0.0 0.00 0.06 0.00 78 913.5
20190424201105 51 202 7.0 0.0 0.00 0.06 0.00 77 913.5
20190424200730 52 248 0.0 0.0 0.00 0.06 0.00 77 913.5
20190424200430 52 202 10.0 0.0 0.00 0.06 0.00 77 913.6
20190424200130 52 202 8.0 0.0 0.00 0.06 0.00 77 913.5
20190424195829 52 202 8.0 0.0 0.00 0.06 0.00 77 913.7
20190424195530 52 202 8.0 0.0 0.00 0.06 0.00 77 913.5
20190424195231 52 202 10.0 0.0 0.00 0.06 0.00 77 913.5
20190424194929 52 248 0.0 0.0 0.00 0.06 0.00 77 913.5
20190424194642 52 180 5.0 0.0 0.00 0.06 0.00 77 913.6
20190424194329 52 225 9.0 0.0 0.00 0.06 0.00 77 913.5
20190424194027 52 180 5.0 0.0 0.00 0.06 0.00 77 913.7
20190424193729 52 202 7.0 0.0 0.00 0.06 0.00 77 913.8
20190424193428 52 202 0.0 0.0 0.00 0.06 0.00 76 913.8
20190424193127 52 202 0.0 0.0 0.00 0.06 0.00 76 913.7
20190424192833 52 202 9.0 0.0 0.00 0.06 0.00 76 913.8
20190424192530 52 180 7.0 0.0 0.00 0.06 0.00 76 913.7
20190424191931 52 202 9.0 0.0 0.00 0.06 0.00 76 913.9
20190424191629 52 180 0.0 0.0 0.00 0.06 0.00 76 913.8
20190424191329 52 180 0.0 0.0 0.00 0.06 0.00 76 913.8
20190424191104 52 225 8.0 0.0 0.00 0.06 0.00 76 913.8
20190424190730 52 202 9.0 0.0 0.00 0.06 0.00 76 913.6
20190424190430 52 158 2.0 0.0 0.00 0.06 0.00 76 913.8
20190424190130 52 202 8.0 0.0 0.00 0.06 0.00 76 913.6
20190424185830 52 225 7.0 0.0 0.00 0.06 0.00 76 913.5
20190424185528 52 202 1.0 0.0 0.00 0.06 0.00 76 913.4
20190424185230 52 202 7.0 0.0 0.00 0.06 0.00 75 913.4
20190424184930 53 202 8.0 0.0 0.00 0.06 0.00 75 913.3
20190424184630 53 225 0.0 0.0 0.00 0.06 0.00 75 913.3
20190424184330 53 202 0.0 0.0 0.00 0.06 0.00 76 913.3
20190424184029 53 202 9.0 0.0 0.00 0.06 0.00 76 913.4
20190424183727 53 180 3.0 0.0 0.00 0.06 0.00 76 913.3
20190424183429 53 202 0.0 0.0 0.00 0.06 0.00 75 913.3
20190424183134 53 202 0.0 0.0 0.00 0.06 0.00 75 913.2
20190424182830 53 202 0.0 0.0 0.00 0.06 0.00 75 913.2
20190424182530 53 270 0.0 0.0 0.00 0.06 0.00 75 913.1
20190424182230 53 315 0.0 0.0 0.00 0.06 0.00 74 913.2
20190424181931 54 202 3.0 0.0 0.00 0.06 0.00 74 913.0